Regional Weather Roundup
Issued by NWS

Home | Current Version | Previous Version | Text Only | Print | Product List | Glossary On
Versions: 1 2 3 4 5 6 7 8 9 10 11 12 13 14 15 16 17 18 19 20 21 22 23 24 25 26 27 28 29 30 31 32 33 34 35 36 37 38 39 40 41 42 43 44 45 46 47 48 49 50
000
ASUS43 KOAX 232002
RWRNE

WEATHER ROUNDUP FOR NEBRASKA
NATIONAL WEATHER SERVICE OMAHA NE
300 PM CDT TUE MAY 23 2017

NOTES: SATELLITE DATA IS BEING USED TO AUGMENT CLOUD COVER ABOVE
       12000 FEET.
       "FAIR" INDICATES FEW OR NO CLOUDS BELOW 12,000 FEET WITH NO
       SIGNIFICANT WEATHER AND/OR OBSTRUCTIONS TO VISIBILITY.

  * THESE STATIONS DO NOT REPORT WEATHER SUCH AS RAIN...SNOW OR FOG.

NEZ001>004-019>022-054>056-232100-
NEBRASKA PANHANDLE

CITY           SKY/WX    TMP DP  RH WIND       PRES   REMARKS
SCOTTSBLUFF    CLOUDY    62  32  32 NW21G29   30.10F
ALLIANCE       PTSUNNY   56  35  45 N17       30.07F
CHADRON        MOSUNNY   60  38  43 N20       30.09S
GORDON         CLOUDY    55  36  49 N21       30.08S
KIMBALL        CLOUDY    56  32  39 NW18G30   30.13S
SIDNEY         CLOUDY    59  38  45 NW20G25   30.09F
$$

NEZ057>060-069>072-079>082-232100-
SOUTHWEST NEBRASKA

CITY           SKY/WX    TMP DP  RH WIND       PRES   REMARKS
NORTH PLATTE   CLOUDY    56  35  45 N24G32    30.02S
IMPERIAL       CLOUDY    58  36  43 N23G32    30.05S
LEXINGTON      CLOUDY    57  41  55 N21G26    29.98S
MCCOOK         CLOUDY    63  33  32 N26G41    30.00S
OGALLALA       CLOUDY    60  33  36 N22G30    30.05F
$$

NEZ005>010-023>029-035>040-094-232100-
NORTH CENTRAL NEBRASKA

CITY           SKY/WX    TMP DP  RH WIND       PRES   REMARKS
VALENTINE      CLOUDY    55  35  47 N16G28    30.01S
AINSWORTH      CLOUDY    51  42  70 N17G24    30.01S
BROKEN BOW     CLOUDY    54  39  57 N25G31    29.98F
O`NEILL        CLOUDY    53  40  60 N24G31    29.96F
ORD            CLOUDY    53  39  59 NW18G33   29.95F
$$

NEZ041-046>049-061>064-073>077-083>087-232100-
SOUTH CENTRAL NEBRASKA

CITY           SKY/WX    TMP DP  RH WIND       PRES   REMARKS
GRAND ISLAND   CLOUDY    54  42  64 NW22G31   29.94F
AURORA         CLOUDY    57  39  51 NW23G31   29.92F
HASTINGS       CLOUDY    56  42  59 N31G40    29.96S
HEBRON         CLOUDY    60  44  55 N18G26    29.90S
HOLDREGE       CLOUDY    57  39  51 N12G28    29.97F
KEARNEY *      CLOUDY    59  37  44 N28G36    29.96F
$$

NEZ011>018-030>034-042>045-232100-
NORTHEAST NEBRASKA

CITY           SKY/WX    TMP DP  RH WIND       PRES   REMARKS
NORFOLK        CLOUDY    53  42  66 N21       29.88F
ALBION         CLOUDY    55  42  63 N21G28    29.93S
BLAIR          CLOUDY    57  44  61 NW9       29.84F
TEKAMAH        LGT RAIN  54  46  74 NW16G28   29.85F
WAYNE          CLOUDY    55  47  76 NW16      29.88F
$$

NEZ050>053-065>068-078-088>093-232100-
SOUTHEAST NEBRASKA

CITY           SKY/WX    TMP DP  RH WIND       PRES   REMARKS
LINCOLN        CLOUDY    58  42  55 NW16      29.89R
OMAHA EPPLEY   PTSUNNY   57  43  59 N15       29.84F
BEATRICE       CLOUDY    58  50  73 N13       29.88R
NEBRASKA CITY  PTSUNNY   60  41  49 NW12G18   29.85F
$$

NEZ044-045-051>053-067-232100-
OMAHA AREA

CITY           SKY/WX    TMP DP  RH WIND       PRES   REMARKS
OMAHA EPPLEY   PTSUNNY   57  43  59 N15       29.84F
BLAIR          CLOUDY    57  44  61 NW9       29.84F
OFFUTT AFB     CLOUDY    58  44  60 NW8       29.84S
WAHOO          CLOUDY    58  43  56 NW16      29.87F
$$




USA.gov is the U.S. government's official web portal to all federal, state and local government web resources and services.